Ely, MN

7:46 AM CST on November 23, 2017 (GMT -0600)
Ely Municipal

Weather History for KELO - October, 2013

Change the Weather History Date:

Tuesday, October 29, 2013

  Actual Average Record
Temperature  
Mean Temperature 26 °F -  
Max Temperature 39 °F 42 °F 60 °F (2005)
Min Temperature 14 °F 28 °F 14 °F (2013)
Degree Days  
Heating Degree Days 38    
Moisture  
Dew Point 19 °F    
Average Humidity 77    
Maximum Humidity 100    
Minimum Humidity 45    
Precipitation  
Precipitation 0.00 in - - ()
Sea Level Pressure  
Sea Level Pressure 30.28 in    
Wind  
Wind Speed 1 mph (SW)    
Max Wind Speed 10 mph    
Max Gust Speed -    
Visibility 10 miles    
Events      
Averages and records for this station are not official NWS values.
T = Trace of Precipitation, MM = Missing Value Source: NWS Daily Summary

Daily Weather History Graph

Daily Weather History Graph

Search for Another Location

Airport or City:

Trip Planner

Search our weather history database for the weather conditions in past years. The results will help you decide how hot, cold, wet, or windy it might be!

Date:

Astronomy

Oct. 29, 2013 Rise Set
Actual Time 7:47 AM CDT 5:53 PM CDT
Civil Twilight 7:15 AM CDT 6:25 PM CDT
Nautical Twilight 6:39 AM CDT 7:02 PM CDT
Astronomical Twilight 6:03 AM CDT 7:37 PM CDT
Moon 2:16 AM CDT (10/29) 3:26 PM CDT (10/29)
Length of Visible Light 11h 10m
Length of Day
10h 05m
Waning Crescent, 25% of the Moon is Illuminated
Oct 29
Waning Crescent
Nov 3
New
Nov 9
First Quarter
Nov 17
Full
Nov 25
Last Quarter

Hourly Weather History & Observations

Time (CDT) Temp. Windchill Dew Point Humidity Pressure Visibility Wind Dir Wind Speed Gust Speed Precip Events Conditions
12:13 AM 17.6 °F - 15.8 °F 93% 30.44 in 10.0 mi Calm Calm - N/A   Clear
12:33 AM 17.6 °F - 15.8 °F 93% 30.44 in 10.0 mi Calm Calm - N/A   Clear
12:53 AM 19.4 °F - 15.8 °F 86% 30.44 in 10.0 mi Calm Calm - N/A   Clear
1:12 AM 17.6 °F - 15.8 °F 93% 30.44 in 10.0 mi Calm Calm - N/A   Clear
1:33 AM 17.6 °F - 15.8 °F 93% 30.43 in 10.0 mi Calm Calm - N/A   Clear
1:52 AM 17.6 °F - 15.8 °F 93% 30.43 in 10.0 mi Calm Calm - N/A   Clear
2:13 AM 19.4 °F - 15.8 °F 86% 30.42 in 10.0 mi Calm Calm - N/A   Clear
2:33 AM 19.4 °F - 15.8 °F 86% 30.42 in 10.0 mi Calm Calm - N/A   Clear
2:52 AM 17.6 °F - 15.8 °F 93% 30.41 in 10.0 mi Calm Calm - N/A   Clear
3:13 AM 17.6 °F - 15.8 °F 93% 30.41 in 10.0 mi Calm Calm - N/A   Clear
3:33 AM 17.6 °F - 15.8 °F 93% 30.41 in 10.0 mi Calm Calm - N/A   Clear
3:52 AM 17.6 °F - 15.8 °F 93% 30.40 in 10.0 mi Calm Calm - N/A   Clear
4:13 AM 17.6 °F - 15.8 °F 93% 30.40 in 10.0 mi Calm Calm - N/A   Clear
4:33 AM 17.6 °F - 15.8 °F 93% 30.40 in 7.0 mi Calm Calm - N/A   Clear
4:52 AM 15.8 °F - 14.0 °F 93% 30.40 in 10.0 mi Calm Calm - N/A   Clear
5:13 AM 15.8 °F - 15.8 °F 100% 30.41 in 10.0 mi Calm Calm - N/A   Clear
5:33 AM 15.8 °F - 14.0 °F 93% 30.41 in 10.0 mi Calm Calm - N/A   Clear
5:52 AM 15.8 °F - 12.2 °F 86% 30.40 in 10.0 mi Calm Calm - N/A   Clear
6:13 AM 15.8 °F - 12.2 °F 86% 30.40 in - Calm Calm - N/A   Unknown
6:33 AM 15.8 °F - 12.2 °F 86% 30.39 in 10.0 mi Calm Calm - N/A   Clear
6:52 AM 14.0 °F - 12.2 °F 93% 30.38 in 10.0 mi Calm Calm - N/A   Clear
7:13 AM 14.0 °F - 12.2 °F 93% 30.36 in 10.0 mi Calm Calm - N/A   Clear
7:33 AM 14.0 °F - 12.2 °F 93% 30.35 in 10.0 mi Calm Calm - N/A   Clear
7:52 AM 14.0 °F - 12.2 °F 93% 30.35 in 10.0 mi Calm Calm - N/A   Clear
8:13 AM 14.0 °F - 12.2 °F 93% 30.35 in 10.0 mi Calm Calm - N/A   Clear
8:32 AM 15.8 °F - 12.2 °F 86% 30.34 in 10.0 mi Calm Calm - N/A   Clear
8:53 AM 15.8 °F - 15.8 °F 100% 30.34 in 10.0 mi Calm Calm - N/A   Clear
9:13 AM 19.4 °F - 17.6 °F 93% 30.34 in 10.0 mi Calm Calm - N/A   Clear
9:32 AM 21.2 °F - 17.6 °F 86% 30.33 in 10.0 mi Calm Calm - N/A   Clear
9:53 AM 24.8 °F - 19.4 °F 80% 30.33 in 10.0 mi Calm Calm - N/A   Clear
10:13 AM 24.8 °F - 21.2 °F 86% 30.32 in 10.0 mi Calm Calm - N/A   Clear
10:32 AM 26.6 °F - 21.2 °F 80% 30.33 in 10.0 mi Calm Calm - N/A   Clear
10:53 AM 28.4 °F - 24.8 °F 86% 30.33 in 10.0 mi Calm Calm - N/A   Clear
11:12 AM 30.2 °F - 24.8 °F 80% 30.33 in 10.0 mi Calm Calm - N/A   Clear
11:33 AM 30.2 °F 26.7 °F 24.8 °F 80% 30.32 in 10.0 mi SW 3.5 mph - N/A   Clear
11:53 AM 32.0 °F - 23.0 °F 69% 30.32 in 10.0 mi Calm Calm - N/A   Clear
12:13 PM 33.8 °F 29.6 °F 23.0 °F 65% 30.30 in 10.0 mi SSW 4.6 mph - N/A   Clear
12:33 PM 35.6 °F 31.7 °F 21.2 °F 56% 30.29 in 10.0 mi WSW 4.6 mph - N/A   Clear
12:53 PM 35.6 °F 32.8 °F 21.2 °F 56% 30.28 in 10.0 mi SW 3.5 mph - N/A   Clear
1:12 PM 35.6 °F 31.7 °F 21.2 °F 56% 30.27 in 10.0 mi SW 4.6 mph - N/A   Clear
1:33 PM 37.4 °F 31.4 °F 19.4 °F 48% 30.26 in 10.0 mi WSW 8.1 mph - N/A   Clear
1:53 PM 37.4 °F 33.8 °F 19.4 °F 48% 30.25 in 10.0 mi SW 4.6 mph - N/A   Clear
2:12 PM 37.4 °F 30.8 °F 19.4 °F 48% 30.24 in 10.0 mi SSW 9.2 mph - N/A   Scattered Clouds
2:33 PM 39.2 °F 33.0 °F 19.4 °F 45% 30.23 in 10.0 mi South 9.2 mph - N/A   Scattered Clouds
2:53 PM 37.4 °F 30.3 °F 19.4 °F 48% 30.22 in 10.0 mi SSW 10.4 mph - N/A   Clear
3:12 PM 37.4 °F 30.8 °F 19.4 °F 48% 30.21 in 10.0 mi SSW 9.2 mph - N/A   Clear
3:33 PM 35.6 °F 28.6 °F 19.4 °F 52% 30.20 in 10.0 mi SSW 9.2 mph - N/A   Scattered Clouds
3:52 PM 35.6 °F 30.7 °F 19.4 °F 52% 30.19 in 10.0 mi SW 5.8 mph - N/A   Mostly Cloudy
4:13 PM 37.4 °F 32.8 °F 19.4 °F 48% 30.18 in 10.0 mi SSW 5.8 mph - N/A   Scattered Clouds
4:33 PM 35.6 °F 29.9 °F 19.4 °F 52% 30.18 in 10.0 mi WSW 6.9 mph - N/A   Clear
4:52 PM 35.6 °F 32.8 °F 19.4 °F 52% 30.17 in 10.0 mi SW 3.5 mph - N/A   Clear
5:13 PM 35.6 °F - 21.2 °F 56% 30.16 in 10.0 mi Calm Calm - N/A   Mostly Cloudy
5:33 PM 35.6 °F 31.7 °F 19.4 °F 52% 30.15 in 10.0 mi SW 4.6 mph - N/A   Overcast
5:52 PM 33.8 °F - 19.4 °F 56% 30.15 in 10.0 mi Calm Calm - N/A   Scattered Clouds
6:13 PM 33.8 °F - 19.4 °F 56% 30.15 in 10.0 mi Calm Calm - N/A   Scattered Clouds
6:32 PM 30.2 °F - 21.2 °F 69% 30.15 in 10.0 mi Calm Calm - N/A   Scattered Clouds
6:53 PM 30.2 °F - 19.4 °F 64% 30.15 in 10.0 mi Calm Calm - N/A   Clear
7:12 PM 30.2 °F 26.7 °F 19.4 °F 64% 30.14 in 10.0 mi SSW 3.5 mph - N/A   Clear
7:33 PM 30.2 °F - 21.2 °F 69% 30.14 in 10.0 mi Calm Calm - N/A   Clear
7:53 PM 30.2 °F - 21.2 °F 69% 30.14 in 10.0 mi Calm Calm - N/A   Clear
8:12 PM 26.6 °F - 21.2 °F 80% 30.13 in 10.0 mi Calm Calm - N/A   Clear
8:33 PM 26.6 °F - 21.2 °F 80% 30.13 in 10.0 mi Calm Calm - N/A   Clear
8:52 PM 26.6 °F - 21.2 °F 80% 30.13 in 10.0 mi Calm Calm - N/A   Clear
9:13 PM 28.4 °F 24.6 °F 23.0 °F 80% 30.13 in 7.0 mi SSW 3.5 mph - N/A   Clear
9:32 PM 26.6 °F - 21.2 °F 80% 30.13 in 10.0 mi Calm Calm - N/A   Clear
9:53 PM 28.4 °F 24.6 °F 24.8 °F 86% 30.13 in 10.0 mi SSW 3.5 mph - N/A   Clear
10:13 PM 28.4 °F - 24.8 °F 86% 30.13 in 10.0 mi Calm Calm - N/A   Mostly Cloudy
10:32 PM 28.4 °F - 23.0 °F 80% 30.13 in 10.0 mi Calm Calm - N/A   Overcast
10:53 PM 28.4 °F 24.6 °F 24.8 °F 86% 30.13 in 10.0 mi SSW 3.5 mph - N/A   Overcast
11:13 PM 28.4 °F - 24.8 °F 86% 30.12 in 10.0 mi Calm Calm - N/A   Overcast
11:32 PM 28.4 °F - 24.8 °F 86% 30.12 in 10.0 mi Calm Calm - N/A   Overcast
11:53 PM 26.6 °F - 24.8 °F 93% 30.12 in 10.0 mi Calm Calm - N/A   Overcast